User: anonymous   Login
Location: *
(58.7167°N, 26.1833°E)
Time: 15:53:11
(UTC+00:00)
Language:

Cosmos 614 Rocket - Orbit

View from above orbital plane
View from above orbital plane
View from above satellite
View from above satellite

Ground track
Ground track

The orbit data is extracted from the following two-line orbital elements,

1  6966U 73098B   19287.94281393 -.00000045  00000-0 -54578-5 0  9995
2  6966  74.0536  85.7297 0021853 209.5059 150.4866 14.43007917408100
Epoch (UTC): 14 October 2019 22:37:39
Eccentricity: 0.0021853
inclination: 74.0536°
perigee height: 733 km
apogee height: 764 km
right ascension of ascending node: 85.7297°
argument of perigee: 209.5059°
revolutions per day: 14.43007917
mean anomaly at epoch: 150.4866°
orbit number at epoch: 40810

The dashed part of the orbit path shows where the satellite is in the earth's shadow,  

DLR